Regional Weather Roundup
Issued by NWS

Home | Current Version | Previous Version | Text Only | Print | Product List | Glossary On
Versions: 1 2 3 4 5 6 7 8 9 10 11 12 13 14 15 16 17 18 19 20 21 22 23 24 25 26 27
000
ASUS42 KKEY 311010
RWRKEY

FLORIDA REGIONAL WEATHER ROUNDUP FOR THE FLORIDA KEYS
NATIONAL WEATHER SERVICE KEY WEST FLORIDA
600 AM EDT TUE MAY 31 2016

...SOUTH FLORIDA AND THE KEYS...

CITY           SKY/WX    TMP DP  RH WIND       PRES   REMARKS
FORT MYERS     CLEAR     70  68  93 E3        29.93R
SW REGIONAL AP CLEAR     70  67  90 CALM      29.94R
NAPLES         CLEAR     71  69  93 NE7       29.93R
MIAMI          PTCLDY    75  72  90 CALM      29.92R
WEST KENDALL   CLEAR     72  70  93 CALM      29.92R
HOMESTEAD      CLEAR     74  72  94 NW3       29.92R
MARATHON       CLOUDY    79  71  76 CALM      29.91R
BOCA CHICA NAS PTCLDY    78  71  79 SE6       29.91R
KEY WEST INTL  PTCLDY    80  73  79 SE7       29.91S

...INTERNATIONAL WEATHER...

CITY           SKY/WX    TMP DP  RH WIND       PRES   REMARKS
NASSAU BAHAMAS NOT AVBL
CANCUN MEXICO  MOCLDY    77  73  88 NE2       29.88S
COZUMEL MEXICO PTCLDY    72  72 100 CALM      29.88R

ADJACENT COASTAL WATERS...

STATION/POSITION TIME  SKY/WX   TEMP    WIND        PRES    WAVE
                                AIR SEA DIR/SP/G            HT/PER
                 (UTC)          (F)     (DEG/KT/KT) (MB)    (FT/S)
PULASKI SHOAL LI 1000            81     110/  2/  3 1013.1R
SAND KEY         0950            81     130/  7/  8 1013.1R
SOMBRERO KEY     NOT AVBL
LONG KEY         1000            81 86  110/  4/  5 1013.3R
MOLASSES REEF    NOT AVBL
FOWEY ROCKS      1000            81 83  110/  3/  4 1013.7R

$$




USA.gov is the U.S. government's official web portal to all federal, state and local government web resources and services.